Gainesville, GA

10:17 PM EST on December 05, 2019 (GMT -0500)
Gilmer Memorial

Weather History for KGVL - August, 2019

Change the Weather History Date:

Friday, August 23, 2019

  Actual Average Record
Temperature  
Mean Temperature 81 °F 78 °F  
Max Temperature 89 °F 87 °F 100 °F (1983)
Min Temperature 72 °F 69 °F 53 °F (1930)
Cooling Degree Days 16 13  
Month to date cooling degree days 363 311  
Year to date cooling degree days 1436 1233  
Since 1 June cooling degree days 1100 1058  
Growing Degree Days 30 (Base 50)    
Moisture  
Dew Point 71 °F    
Average Humidity 79    
Maximum Humidity 100    
Minimum Humidity 57    
Precipitation  
Precipitation T in 0.11 in 3.05 in (1969)
Month to date precipitation 2.13 3.47  
Year to date precipitation 36.97 35.29  
Sea Level Pressure  
Sea Level Pressure 30.02 in    
Wind  
Wind Speed 4 mph (NW)    
Max Wind Speed 15 mph    
Max Gust Speed 19 mph    
Visibility 10 miles    
Events Rain    
T = Trace of Precipitation, MM = Missing Value Source: NWS Daily Summary

Daily Weather History Graph

Daily Weather History Graph

Search for Another Location

Airport or City:

Astronomy

Aug. 23, 2019 Rise Set
Actual Time 7:02 AM EDT 8:13 PM EDT
Civil Twilight 6:36 AM EDT 8:39 PM EDT
Nautical Twilight 6:05 AM EDT 9:10 PM EDT
Astronomical Twilight 5:32 AM EDT 9:42 PM EDT
Moon 12:22 AM EDT (8/23) 2:18 PM EDT (8/23)
Length of Visible Light 14h 03m
Length of Day
13h 11m
Waning Gibbous, 50% of the Moon is Illuminated
Aug 23
Waning Gibbous
Aug 30
New
Sep 5
First Quarter
Sep 14
Full
Sep 21
Last Quarter

Hourly Weather History & Observations

Time (EDT) Temp. Heat Index Dew Point Humidity Pressure Visibility Wind Dir Wind Speed Gust Speed Precip Events Conditions
12:53 AM 78.1 °F - 71.1 °F 79% 30.02 in 10.0 mi Calm Calm - N/A   Scattered Clouds
1:53 AM 75.0 °F - 70.0 °F 84% 30.01 in 10.0 mi Calm Calm - N/A   Partly Cloudy
2:53 AM 75.9 °F - 71.1 °F 85% 30.01 in 10.0 mi WNW 3.5 mph - N/A   Mostly Cloudy
3:53 AM 75.9 °F - 72.0 °F 87% 30.01 in 10.0 mi Calm Calm - N/A   Mostly Cloudy
4:53 AM 75.0 °F - 72.0 °F 90% 30.02 in 10.0 mi Calm Calm - N/A   Scattered Clouds
5:53 AM 75.0 °F - 72.0 °F 90% 30.03 in 10.0 mi North 3.5 mph - N/A   Mostly Cloudy
6:53 AM 73.0 °F - 72.0 °F 96% 30.04 in 10.0 mi Calm Calm - N/A   Clear
7:53 AM 75.0 °F - 73.0 °F 94% 30.06 in 10.0 mi Calm Calm - N/A   Clear
8:53 AM 79.0 °F - 73.0 °F 82% 30.06 in 10.0 mi Variable 5.8 mph - N/A   Clear
9:53 AM 82.0 °F 86.7 °F 72.0 °F 71% 30.06 in 10.0 mi NW 5.8 mph - N/A   Clear
11:53 AM 86.0 °F 91.5 °F 71.1 °F 61% 30.04 in 10.0 mi NW 4.6 mph - N/A   Mostly Cloudy
12:53 PM 86.0 °F 90.7 °F 70.0 °F 59% 30.03 in 10.0 mi WNW 5.8 mph - N/A   Scattered Clouds
1:53 PM 88.0 °F 92.9 °F 70.0 °F 55% 30.01 in 10.0 mi West 8.1 mph - 0.00 in Rain Light Rain
2:53 PM 87.1 °F 94.5 °F 73.0 °F 63% 30.00 in 10.0 mi North 9.2 mph - 0.00 in   Scattered Clouds
3:53 PM 87.1 °F 93.6 °F 72.0 °F 61% 29.99 in 10.0 mi NNW 6.9 mph - N/A   Clear
4:53 PM 84.9 °F 90.1 °F 71.1 °F 63% 29.99 in 10.0 mi NNW 11.5 mph - N/A   Mostly Cloudy
5:53 PM 81.0 °F 84.9 °F 71.1 °F 72% 30.00 in 10.0 mi WNW 9.2 mph - N/A   Partly Cloudy
6:53 PM 79.0 °F - 69.1 °F 72% 29.99 in 10.0 mi WSW 4.6 mph - N/A   Clear
7:53 PM 79.0 °F - 69.1 °F 72% 29.99 in 10.0 mi NNW 4.6 mph - N/A   Clear
8:53 PM 77.0 °F - 70.0 °F 79% 29.99 in 10.0 mi North 3.5 mph - N/A   Clear
10:53 PM 73.0 °F - 71.1 °F 93% 30.03 in 10.0 mi South 4.6 mph - N/A   Clear
11:53 PM 72.0 °F - 71.1 °F 97% 30.03 in 10.0 mi South 3.5 mph - N/A   Partly Cloudy